| time (UTC) | temp F | wind direction | speed MPH | gust MPH | rain 1hr in | rain 24hr in | rain mn in | humidity % | barometer mb |
| 20260901170856 | 97 | 123 | 1.0 | 7.0 | 0.00 | 0.00 | 0.00 | 47 | 1018.4 |
| 20260901170357 | 97 | 221 | 2.0 | 6.0 | 0.00 | 0.00 | 0.00 | 48 | 1018.6 |
| 20260901165856 | 95 | 206 | 3.0 | 5.0 | 0.00 | 0.00 | 0.00 | 53 | 1018.7 |
| 20260901165356 | 96 | 11 | 0.0 | 6.0 | 0.00 | 0.00 | 0.00 | 51 | 1018.7 |
| 20260901164856 | 96 | 151 | 2.0 | 6.0 | 0.00 | 0.00 | 0.00 | 51 | 1018.8 |
| 20260901164356 | 96 | 156 | 2.0 | 8.0 | 0.00 | 0.00 | 0.00 | 54 | 1018.8 |
| 20260901163856 | 97 | 230 | 2.0 | 8.0 | 0.00 | 0.00 | 0.00 | 50 | 1018.8 |
| 20260901163356 | 96 | 74 | 3.0 | 5.0 | 0.00 | 0.00 | 0.00 | 58 | 1018.8 |
| 20260901162856 | 95 | 17 | 3.0 | 5.0 | 0.00 | 0.00 | 0.00 | 55 | 1018.7 |
| 20260901162356 | 95 | 214 | 0.0 | 4.0 | 0.00 | 0.00 | 0.00 | 56 | 1018.8 |
| 20260901161856 | 94 | 140 | 0.0 | 4.0 | 0.00 | 0.00 | 0.00 | 56 | 1018.9 |
| 20260901161356 | 94 | 76 | 1.0 | 5.0 | 0.00 | 0.00 | 0.00 | 56 | 1019.0 |
| 20260901160856 | 96 | 34 | 0.0 | 5.0 | 0.00 | 0.00 | 0.00 | 52 | 1019.0 |
| 20260901155856 | 95 | 298 | 2.0 | 4.0 | 0.00 | 0.00 | 0.00 | 57 | 1019.0 |
| 20260901154356 | 94 | 360 | 0.0 | 6.0 | 0.00 | 0.00 | 0.00 | 56 | 1019.2 |
| 20260901153356 | 94 | 327 | 1.0 | 4.0 | 0.00 | 0.00 | 0.00 | 57 | 1019.2 |
| 20260901152856 | 95 | 351 | 2.0 | 3.0 | 0.00 | 0.00 | 0.00 | 59 | 1019.0 |
| 20260901152356 | 93 | 290 | 1.0 | 5.0 | 0.00 | 0.00 | 0.00 | 60 | 1019.1 |
| 20260901151856 | 93 | 255 | 0.0 | 5.0 | 0.00 | 0.00 | 0.00 | 62 | 1019.1 |
| 20260901151356 | 94 | 333 | 0.0 | 4.0 | 0.00 | 0.00 | 0.00 | 60 | 1019.1 |
| 20260901150856 | 93 | 321 | 2.0 | 4.0 | 0.00 | 0.00 | 0.00 | 61 | 1019.1 |
| 20260901150356 | 92 | 277 | 2.0 | 4.0 | 0.00 | 0.00 | 0.00 | 60 | 1019.1 |
| 20260901145856 | 91 | 339 | 0.0 | 4.0 | 0.00 | 0.00 | 0.00 | 62 | 1019.1 |
| 20260901144355 | 91 | 5 | 3.0 | 5.0 | 0.00 | 0.00 | 0.00 | 64 | 1019.2 |
| 20260901143855 | 91 | 323 | 1.0 | 5.0 | 0.00 | 0.00 | 0.00 | 64 | 1019.2 |
| 20260901143356 | 91 | 36 | 2.0 | 3.0 | 0.00 | 0.00 | 0.00 | 64 | 1019.2 |
| 20260901142856 | 91 | 282 | 0.0 | 4.0 | 0.00 | 0.00 | 0.00 | 67 | 1019.3 |
| 20260901142356 | 90 | 286 | 0.0 | 4.0 | 0.00 | 0.00 | 0.00 | 67 | 1019.4 |
| 20260901141856 | 90 | 289 | 2.0 | 3.0 | 0.00 | 0.00 | 0.00 | 67 | 1019.3 |
| 20260901141356 | 90 | 211 | 0.0 | 4.0 | 0.00 | 0.00 | 0.00 | 66 | 1019.4 |
| 20260901140856 | 89 | 286 | 0.0 | 4.0 | 0.00 | 0.00 | 0.00 | 68 | 1019.3 |
| 20260901140355 | 88 | 123 | 0.0 | 3.0 | 0.00 | 0.00 | 0.00 | 71 | 1019.3 |
| 20260901135856 | 87 | 123 | 0.0 | 2.0 | 0.00 | 0.00 | 0.00 | 72 | 1019.3 |
| 20260901135356 | 87 | 123 | 0.0 | 2.0 | 0.00 | 0.00 | 0.00 | 72 | 1019.4 |
| 20260901134856 | 86 | 123 | 0.0 | 0.0 | 0.00 | 0.00 | 0.00 | 74 | 1019.3 |
| 20260901134355 | 86 | 123 | 0.0 | 0.0 | 0.00 | 0.00 | 0.00 | 74 | 1019.4 |
| 20260901133855 | 85 | 123 | 0.0 | 0.0 | 0.00 | 0.00 | 0.00 | 76 | 1019.4 |
| 20260901132855 | 84 | 123 | 0.0 | 0.0 | 0.00 | 0.00 | 0.00 | 79 | 1019.2 |
| 20260901132355 | 83 | 123 | 0.0 | 0.0 | 0.00 | 0.00 | 0.00 | 81 | 1019.3 |
| 20260901131855 | 82 | 123 | 0.0 | 0.0 | 0.00 | 0.00 | 0.00 | 81 | 1019.2 |
| 20260901131355 | 82 | 123 | 0.0 | 0.0 | 0.00 | 0.00 | 0.00 | 81 | 1019.2 |
| 20260901130355 | 81 | 123 | 0.0 | 0.0 | 0.00 | 0.00 | 0.00 | 83 | 1019.1 |
| 20260901125855 | 80 | 123 | 0.0 | 0.0 | 0.00 | 0.00 | 0.00 | 84 | 1019.1 |
| 20260901125355 | 79 | 123 | 0.0 | 0.0 | 0.00 | 0.00 | 0.00 | 86 | 1019.0 |
| 20260901124855 | 79 | 123 | 0.0 | 2.0 | 0.00 | 0.00 | 0.00 | 87 | 1018.9 |
| 20260901124355 | 78 | 123 | 0.0 | 2.0 | 0.00 | 0.00 | 0.00 | 87 | 1018.9 |
| 20260901123855 | 77 | 71 | 0.0 | 0.0 | 0.00 | 0.00 | 0.00 | 88 | 1018.8 |
| 20260901123354 | 77 | 71 | 0.0 | 0.0 | 0.00 | 0.00 | 0.00 | 90 | 1018.8 |
| 20260901122855 | 76 | 71 | 0.0 | 0.0 | 0.00 | 0.00 | 0.00 | 90 | 1018.7 |
| 20260901122355 | 76 | 71 | 0.0 | 0.0 | 0.00 | 0.00 | 0.00 | 90 | 1018.7 |
| 20260901121854 | 75 | 71 | 0.0 | 0.0 | 0.00 | 0.00 | 0.00 | 91 | 1018.6 |
| 20260901120855 | 75 | 71 | 0.0 | 0.0 | 0.00 | 0.00 | 0.00 | 91 | 1018.6 |
| 20260901120354 | 75 | 71 | 0.0 | 0.0 | 0.00 | 0.00 | 0.00 | 91 | 1018.5 |
| 20260901115855 | 75 | 71 | 0.0 | 0.0 | 0.00 | 0.00 | 0.00 | 91 | 1018.5 |
| 20260901115354 | 75 | 71 | 0.0 | 0.0 | 0.00 | 0.00 | 0.00 | 91 | 1018.3 |
| 20260901114854 | 74 | 71 | 0.0 | 0.0 | 0.00 | 0.00 | 0.00 | 91 | 1018.3 |
| 20260901114354 | 74 | 71 | 0.0 | 0.0 | 0.00 | 0.00 | 0.00 | 91 | 1018.2 |
| 20260901113854 | 74 | 71 | 0.0 | 0.0 | 0.00 | 0.00 | 0.00 | 91 | 1018.1 |
| 20260901113354 | 74 | 71 | 0.0 | 0.0 | 0.00 | 0.00 | 0.00 | 92 | 1017.9 |
| 20260901112354 | 74 | 71 | 0.0 | 0.0 | 0.00 | 0.00 | 0.00 | 92 | 1018.0 |
| 20260901111854 | 74 | 71 | 0.0 | 0.0 | 0.00 | 0.00 | 0.00 | 92 | 1017.9 |
| 20260901111354 | 74 | 71 | 0.0 | 0.0 | 0.00 | 0.00 | 0.00 | 92 | 1017.8 |
| 20260901110854 | 74 | 71 | 0.0 | 0.0 | 0.00 | 0.00 | 0.00 | 91 | 1017.8 |
| 20260901110354 | 75 | 71 | 0.0 | 0.0 | 0.00 | 0.00 | 0.00 | 91 | 1017.7 |
| 20260901105854 | 74 | 71 | 0.0 | 0.0 | 0.00 | 0.00 | 0.00 | 91 | 1017.7 |
| 20260901105354 | 75 | 71 | 0.0 | 0.0 | 0.00 | 0.00 | 0.00 | 91 | 1017.9 |
| 20260901104854 | 75 | 71 | 0.0 | 0.0 | 0.00 | 0.00 | 0.00 | 91 | 1017.9 |
| 20260901104354 | 75 | 71 | 0.0 | 0.0 | 0.00 | 0.00 | 0.00 | 91 | 1017.8 |
| 20260901103354 | 75 | 71 | 0.0 | 0.0 | 0.00 | 0.00 | 0.00 | 91 | 1017.9 |
| 20260901102854 | 75 | 71 | 0.0 | 0.0 | 0.00 | 0.00 | 0.00 | 90 | 1017.9 |
| 20260901102353 | 75 | 71 | 0.0 | 0.0 | 0.00 | 0.00 | 0.00 | 91 | 1017.8 |
| 20260901101853 | 75 | 71 | 0.0 | 0.0 | 0.00 | 0.00 | 0.00 | 91 | 1017.8 |
| 20260901100854 | 75 | 71 | 0.0 | 0.0 | 0.00 | 0.00 | 0.00 | 90 | 1017.7 |
| 20260901100354 | 75 | 71 | 0.0 | 0.0 | 0.00 | 0.00 | 0.00 | 90 | 1017.7 |
| 20260901095853 | 75 | 71 | 0.0 | 0.0 | 0.00 | 0.00 | 0.00 | 90 | 1017.6 |
| 20260901095353 | 75 | 71 | 0.0 | 0.0 | 0.00 | 0.00 | 0.00 | 90 | 1017.6 |
| 20260901094854 | 75 | 71 | 0.0 | 0.0 | 0.00 | 0.00 | 0.00 | 90 | 1017.6 |
| 20260901094353 | 75 | 71 | 0.0 | 0.0 | 0.00 | 0.00 | 0.00 | 90 | 1017.5 |
| 20260901093853 | 75 | 71 | 0.0 | 0.0 | 0.00 | 0.00 | 0.00 | 90 | 1017.6 |
| 20260901093353 | 75 | 71 | 0.0 | 0.0 | 0.00 | 0.00 | 0.00 | 89 | 1017.6 |
| 20260901092854 | 75 | 71 | 0.0 | 0.0 | 0.00 | 0.00 | 0.00 | 89 | 1017.6 |
| 20260901092353 | 76 | 71 | 0.0 | 0.0 | 0.00 | 0.00 | 0.00 | 89 | 1017.4 |
| 20260901091854 | 76 | 71 | 0.0 | 0.0 | 0.00 | 0.00 | 0.00 | 89 | 1017.4 |
| 20260901091353 | 76 | 71 | 0.0 | 0.0 | 0.00 | 0.00 | 0.00 | 88 | 1017.4 |
| 20260901085853 | 76 | 71 | 0.0 | 0.0 | 0.00 | 0.00 | 0.00 | 88 | 1017.4 |
| 20260901085353 | 76 | 71 | 0.0 | 0.0 | 0.00 | 0.00 | 0.00 | 87 | 1017.5 |
| 20260901084853 | 77 | 71 | 0.0 | 0.0 | 0.00 | 0.00 | 0.00 | 87 | 1017.5 |
| 20260901084353 | 77 | 71 | 0.0 | 0.0 | 0.00 | 0.00 | 0.00 | 88 | 1017.4 |
| 20260901083853 | 76 | 71 | 0.0 | 0.0 | 0.00 | 0.00 | 0.00 | 88 | 1017.4 |
| 20260901082853 | 76 | 71 | 0.0 | 0.0 | 0.00 | 0.00 | 0.00 | 89 | 1017.2 |
| 20260901082353 | 76 | 71 | 0.0 | 0.0 | 0.00 | 0.00 | 0.00 | 88 | 1017.2 |
| 20260901081853 | 76 | 71 | 0.0 | 0.0 | 0.00 | 0.00 | 0.00 | 88 | 1017.2 |
| 20260901081353 | 76 | 71 | 0.0 | 0.0 | 0.00 | 0.00 | 0.00 | 88 | 1017.2 |
| 20260901080853 | 76 | 71 | 0.0 | 0.0 | 0.00 | 0.00 | 0.00 | 88 | 1017.2 |
| 20260901080353 | 76 | 71 | 0.0 | 0.0 | 0.00 | 0.00 | 0.00 | 88 | 1017.3 |
| 20260901075853 | 76 | 71 | 0.0 | 0.0 | 0.00 | 0.00 | 0.00 | 88 | 1017.4 |
| 20260901075353 | 76 | 71 | 0.0 | 0.0 | 0.00 | 0.00 | 0.00 | 87 | 1017.3 |
| 20260901074853 | 76 | 71 | 0.0 | 0.0 | 0.00 | 0.00 | 0.00 | 88 | 1017.2 |
| 20260901074353 | 76 | 71 | 0.0 | 0.0 | 0.00 | 0.00 | 0.00 | 88 | 1017.1 |
| 20260901073853 | 76 | 71 | 0.0 | 0.0 | 0.00 | 0.00 | 0.00 | 88 | 1017.1 |
| 20260901073353 | 76 | 71 | 0.0 | 0.0 | 0.00 | 0.00 | 0.00 | 87 | 1017.0 |
| 20260901072853 | 77 | 71 | 0.0 | 0.0 | 0.00 | 0.00 | 0.00 | 87 | 1017.2 |
| 20260901072353 | 77 | 71 | 0.0 | 0.0 | 0.00 | 0.00 | 0.00 | 87 | 1017.1 |
| 20260901071852 | 77 | 71 | 0.0 | 0.0 | 0.00 | 0.00 | 0.00 | 87 | 1017.2 |
| 20260901071353 | 77 | 71 | 0.0 | 0.0 | 0.00 | 0.00 | 0.00 | 87 | 1017.3 |
| 20260901070852 | 77 | 71 | 0.0 | 0.0 | 0.00 | 0.00 | 0.00 | 87 | 1017.2 |
| 20260901070352 | 77 | 71 | 0.0 | 0.0 | 0.00 | 0.00 | 0.00 | 87 | 1017.1 |
| 20260901065853 | 77 | 71 | 0.0 | 0.0 | 0.00 | 0.00 | 0.00 | 87 | 1017.1 |
| 20260901065352 | 77 | 71 | 0.0 | 0.0 | 0.00 | 0.00 | 0.00 | 86 | 1017.1 |
| 20260901064353 | 77 | 71 | 0.0 | 0.0 | 0.00 | 0.00 | 0.00 | 85 | 1017.1 |
| 20260901062853 | 77 | 71 | 0.0 | 0.0 | 0.00 | 0.00 | 0.00 | 84 | 1017.2 |
| 20260901062353 | 77 | 71 | 0.0 | 0.0 | 0.00 | 0.00 | 0.00 | 84 | 1017.2 |
| 20260901061853 | 78 | 71 | 0.0 | 0.0 | 0.00 | 0.00 | 0.00 | 85 | 1017.2 |
| 20260901060853 | 78 | 71 | 0.0 | 0.0 | 0.00 | 0.00 | 0.00 | 84 | 1017.2 |
| 20260901060353 | 78 | 71 | 0.0 | 0.0 | 0.00 | 0.00 | 0.00 | 84 | 1017.2 |
| 20260901055853 | 78 | 71 | 0.0 | 0.0 | 0.00 | 0.00 | 0.00 | 84 | 1017.3 |
| 20260901055353 | 78 | 71 | 0.0 | 0.0 | 0.00 | 0.00 | 0.00 | 83 | 1017.4 |
| 20260901054853 | 78 | 71 | 0.0 | 0.0 | 0.00 | 0.00 | 0.00 | 83 | 1017.4 |
| 20260901054353 | 78 | 71 | 0.0 | 0.0 | 0.00 | 0.00 | 0.00 | 83 | 1017.4 |
| 20260901053852 | 78 | 71 | 0.0 | 0.0 | 0.00 | 0.00 | 0.00 | 82 | 1017.3 |
| 20260901052852 | 79 | 71 | 0.0 | 0.0 | 0.00 | 0.00 | 0.00 | 82 | 1017.3 |
| 20260901052352 | 79 | 71 | 0.0 | 0.0 | 0.00 | 0.00 | 0.00 | 82 | 1017.2 |
| 20260901051852 | 79 | 71 | 0.0 | 0.0 | 0.00 | 0.00 | 0.00 | 82 | 1017.2 |
| 20260901051352 | 79 | 71 | 0.0 | 0.0 | 0.00 | 0.00 | 0.00 | 82 | 1017.1 |
| 20260901050852 | 79 | 71 | 0.0 | 0.0 | 0.00 | 0.00 | 0.00 | 81 | 1017.2 |
| 20260901050352 | 79 | 71 | 0.0 | 0.0 | 0.00 | 0.00 | 0.00 | 81 | 1017.3 |
| 20260901044352 | 79 | 71 | 0.0 | 2.0 | 0.00 | 0.00 | 0.00 | 80 | 1017.2 |
| 20260901042852 | 80 | 71 | 1.0 | 2.0 | 0.00 | 0.00 | 0.00 | 80 | 1017.2 |
| 20260901042351 | 80 | 71 | 0.0 | 0.0 | 0.00 | 0.00 | 0.00 | 79 | 1017.2 |
| 20260901041851 | 80 | 71 | 0.0 | 0.0 | 0.00 | 0.00 | 0.00 | 79 | 1017.1 |
| 20260901041351 | 80 | 71 | 0.0 | 0.0 | 0.00 | 0.00 | 0.00 | 78 | 1017.0 |
| 20260901040851 | 80 | 71 | 0.0 | 0.0 | 0.00 | 0.00 | 0.00 | 78 | 1017.0 |
| 20260901035851 | 80 | 71 | 0.0 | 0.0 | 0.00 | 0.00 | 0.00 | 78 | 1016.9 |
| 20260901035351 | 80 | 71 | 0.0 | 0.0 | 0.00 | 0.00 | 0.00 | 77 | 1016.9 |
| 20260901034351 | 81 | 71 | 0.0 | 0.0 | 0.00 | 0.00 | 0.00 | 76 | 1016.9 |
| 20260901033851 | 81 | 71 | 0.0 | 0.0 | 0.00 | 0.00 | 0.00 | 76 | 1016.9 |
| 20260901033351 | 81 | 71 | 0.0 | 0.0 | 0.00 | 0.00 | 0.00 | 76 | 1016.9 |
| 20260901032351 | 81 | 71 | 0.0 | 0.0 | 0.00 | 0.00 | 0.00 | 76 | 1017.0 |
| 20260901031851 | 81 | 71 | 0.0 | 0.0 | 0.00 | 0.00 | 0.00 | 76 | 1017.0 |
| 20260901031351 | 81 | 71 | 0.0 | 0.0 | 0.00 | 0.00 | 0.00 | 76 | 1017.0 |
| 20260901030851 | 81 | 71 | 0.0 | 0.0 | 0.00 | 0.00 | 0.00 | 76 | 1017.0 |
| 20260901025851 | 81 | 71 | 0.0 | 0.0 | 0.00 | 0.00 | 0.00 | 76 | 1017.0 |
| 20260901024851 | 81 | 71 | 0.0 | 0.0 | 0.00 | 0.00 | 0.00 | 76 | 1016.9 |
| 20260901023350 | 82 | 71 | 0.0 | 0.0 | 0.00 | 0.00 | 0.00 | 73 | 1016.8 |
| 20260901022851 | 82 | 71 | 0.0 | 0.0 | 0.00 | 0.00 | 0.00 | 73 | 1016.7 |
| 20260901022350 | 82 | 71 | 0.0 | 0.0 | 0.00 | 0.00 | 0.00 | 73 | 1016.7 |
| 20260901021350 | 82 | 71 | 0.0 | 0.0 | 0.00 | 0.00 | 0.00 | 72 | 1016.7 |
| 20260901020850 | 83 | 71 | 0.0 | 0.0 | 0.00 | 0.00 | 0.00 | 71 | 1016.6 |
| 20260901020350 | 83 | 71 | 0.0 | 0.0 | 0.00 | 0.00 | 0.00 | 71 | 1016.6 |
| 20260901015850 | 83 | 71 | 0.0 | 0.0 | 0.00 | 0.00 | 0.00 | 71 | 1016.5 |
| 20260901015350 | 83 | 71 | 0.0 | 0.0 | 0.00 | 0.00 | 0.00 | 71 | 1016.5 |
| 20260901014850 | 83 | 71 | 0.0 | 0.0 | 0.00 | 0.00 | 0.00 | 71 | 1016.5 |
| 20260901014350 | 83 | 71 | 0.0 | 0.0 | 0.00 | 0.00 | 0.00 | 70 | 1016.4 |
| 20260901013850 | 83 | 71 | 0.0 | 0.0 | 0.00 | 0.00 | 0.00 | 70 | 1016.3 |
| 20260901013350 | 84 | 71 | 0.0 | 0.0 | 0.00 | 0.00 | 0.00 | 70 | 1016.2 |
| 20260901012850 | 84 | 71 | 0.0 | 0.0 | 0.00 | 0.00 | 0.00 | 69 | 1016.2 |
| 20260901012350 | 84 | 71 | 0.0 | 0.0 | 0.00 | 0.00 | 0.00 | 69 | 1016.0 |
| 20260901011850 | 84 | 71 | 0.0 | 0.0 | 0.00 | 0.00 | 0.00 | 68 | 1016.0 |
| 20260901011350 | 84 | 71 | 0.0 | 0.0 | 0.00 | 0.00 | 0.00 | 68 | 1016.1 |
| 20260901010850 | 85 | 71 | 0.0 | 0.0 | 0.00 | 0.00 | 0.00 | 68 | 1016.0 |
| 20260901010350 | 85 | 71 | 0.0 | 0.0 | 0.00 | 0.00 | 0.00 | 66 | 1015.9 |
| 20260901005850 | 85 | 71 | 0.0 | 0.0 | 0.00 | 0.00 | 0.00 | 66 | 1015.9 |
| 20260901005350 | 85 | 71 | 0.0 | 0.0 | 0.00 | 0.00 | 0.00 | 66 | 1015.8 |
| 20260901004850 | 86 | 71 | 0.0 | 0.0 | 0.00 | 0.00 | 0.00 | 66 | 1015.6 |
| 20260901004350 | 86 | 71 | 0.0 | 0.0 | 0.00 | 0.00 | 0.00 | 65 | 1015.6 |
| 20260901003350 | 87 | 71 | 0.0 | 0.0 | 0.00 | 0.00 | 0.00 | 64 | 1015.5 |
| 20260901002850 | 87 | 71 | 0.0 | 0.0 | 0.00 | 0.00 | 0.00 | 64 | 1015.6 |
| 20260901002349 | 87 | 71 | 0.0 | 1.0 | 0.00 | 0.00 | 0.00 | 64 | 1015.6 |
| 20260901001850 | 88 | 71 | 0.0 | 2.0 | 0.00 | 0.00 | 0.00 | 65 | 1015.6 |
| 20260901001349 | 88 | 71 | 0.0 | 2.0 | 0.00 | 0.00 | 0.00 | 64 | 1015.6 |
| 20260901000849 | 88 | 71 | 0.0 | 0.0 | 0.00 | 0.00 | 0.00 | 63 | 1015.8 |
| 20260901000350 | 89 | 71 | 0.0 | 0.0 | 0.00 | 0.00 | 0.00 | 63 | 1015.8 |
| 20260831235849 | 90 | 71 | 0.0 | 0.0 | 0.00 | 0.00 | 0.00 | 61 | 1015.7 |
| 20260831235349 | 90 | 71 | 0.0 | 0.0 | 0.00 | 0.00 | 0.00 | 61 | 1015.6 |
| 20260831234850 | 91 | 100 | 0.0 | 0.0 | 0.00 | 0.00 | 0.00 | 59 | 1015.6 |
| 20260831234349 | 91 | 100 | 0.0 | 0.0 | 0.00 | 0.00 | 0.00 | 58 | 1015.7 |
| 20260831233849 | 92 | 100 | 0.0 | 0.0 | 0.00 | 0.00 | 0.00 | 56 | 1015.7 |
| 20260831233349 | 92 | 108 | 0.0 | 0.0 | 0.00 | 0.00 | 0.00 | 58 | 1015.7 |
| 20260831232849 | 93 | 108 | 0.0 | 0.0 | 0.00 | 0.00 | 0.00 | 56 | 1015.8 |
| 20260831232349 | 93 | 85 | 0.0 | 2.0 | 0.00 | 0.00 | 0.00 | 53 | 1015.6 |
| 20260831231849 | 94 | 94 | 0.0 | 3.0 | 0.00 | 0.00 | 0.00 | 53 | 1015.8 |
| 20260831231349 | 94 | 92 | 0.0 | 3.0 | 0.00 | 0.00 | 0.00 | 54 | 1015.8 |
| 20260831230849 | 94 | 42 | 1.0 | 4.0 | 0.00 | 0.00 | 0.00 | 50 | 1015.8 |
| 20260831230348 | 94 | 40 | 1.0 | 4.0 | 0.00 | 0.00 | 0.00 | 49 | 1015.8 |
| 20260831225848 | 95 | 62 | 3.0 | 4.0 | 0.00 | 0.00 | 0.00 | 51 | 1015.8 |
| 20260831224848 | 95 | 17 | 1.0 | 4.0 | 0.00 | 0.00 | 0.00 | 48 | 1015.8 |
| 20260831224348 | 95 | 28 | 3.0 | 7.0 | 0.00 | 0.00 | 0.00 | 49 | 1016.0 |
| 20260831223848 | 95 | 5 | 4.0 | 8.0 | 0.00 | 0.00 | 0.00 | 48 | 1015.9 |
| 20260831223348 | 95 | 80 | 0.0 | 8.0 | 0.00 | 0.00 | 0.00 | 48 | 1015.9 |
| 20260831222848 | 96 | 26 | 4.0 | 7.0 | 0.00 | 0.00 | 0.00 | 48 | 1016.0 |
| 20260831222349 | 96 | 344 | 2.0 | 8.0 | 0.00 | 0.00 | 0.00 | 48 | 1016.1 |
| 20260831221848 | 96 | 32 | 2.0 | 8.0 | 0.00 | 0.00 | 0.00 | 48 | 1016.2 |
| 20260831221348 | 96 | 28 | 1.0 | 8.0 | 0.00 | 0.00 | 0.00 | 48 | 1016.1 |
| 20260831220348 | 96 | 123 | 2.0 | 6.0 | 0.00 | 0.00 | 0.00 | 48 | 1016.1 |
| 20260831215848 | 96 | 33 | 0.0 | 6.0 | 0.00 | 0.00 | 0.00 | 48 | 1016.2 |
| 20260831215348 | 96 | 104 | 2.0 | 4.0 | 0.00 | 0.00 | 0.00 | 49 | 1016.3 |
| 20260831214848 | 96 | 40 | 2.0 | 4.0 | 0.00 | 0.00 | 0.00 | 48 | 1016.2 |
| 20260831214348 | 96 | 39 | 2.0 | 5.0 | 0.00 | 0.00 | 0.00 | 47 | 1016.1 |
| 20260831213848 | 98 | 15 | 4.0 | 5.0 | 0.00 | 0.00 | 0.00 | 46 | 1016.2 |
| 20260831213348 | 98 | 19 | 3.0 | 4.0 | 0.00 | 0.00 | 0.00 | 47 | 1016.3 |
| 20260831212347 | 97 | 56 | 1.0 | 5.0 | 0.00 | 0.00 | 0.00 | 46 | 1016.4 |
| 20260831211848 | 97 | 344 | 2.0 | 7.0 | 0.00 | 0.00 | 0.00 | 48 | 1016.4 |
| 20260831211347 | 97 | 40 | 2.0 | 7.0 | 0.00 | 0.00 | 0.00 | 48 | 1016.4 |
| 20260831210847 | 97 | 355 | 3.0 | 5.0 | 0.00 | 0.00 | 0.00 | 46 | 1016.5 |
| 20260831205848 | 96 | 44 | 4.0 | 8.0 | 0.00 | 0.00 | 0.00 | 48 | 1016.8 |
| 20260831204847 | 97 | 21 | 0.0 | 5.0 | 0.00 | 0.00 | 0.00 | 48 | 1016.7 |
| 20260831204347 | 96 | 320 | 1.0 | 5.0 | 0.00 | 0.00 | 0.00 | 48 | 1016.6 |
| 20260831203847 | 96 | 17 | 3.0 | 5.0 | 0.00 | 0.00 | 0.00 | 49 | 1016.6 |
| 20260831203347 | 98 | 331 | 3.0 | 7.0 | 0.00 | 0.00 | 0.00 | 46 | 1016.9 |
| 20260831202847 | 97 | 297 | 1.0 | 8.0 | 0.00 | 0.00 | 0.00 | 48 | 1016.9 |
| 20260831202347 | 97 | 96 | 4.0 | 8.0 | 0.00 | 0.00 | 0.00 | 47 | 1016.8 |
| 20260831201847 | 96 | 254 | 1.0 | 8.0 | 0.00 | 0.00 | 0.00 | 49 | 1016.7 |
| 20260831201347 | 97 | 322 | 0.0 | 2.0 | 0.00 | 0.00 | 0.00 | 49 | 1016.8 |
| 20260831200347 | 93 | 106 | 1.0 | 2.0 | 0.00 | 0.00 | 0.00 | 56 | 1016.9 |
| 20260831195847 | 93 | 80 | 0.0 | 3.0 | 0.00 | 0.00 | 0.00 | 51 | 1017.0 |
| 20260831195347 | 94 | 31 | 0.0 | 3.0 | 0.00 | 0.00 | 0.00 | 51 | 1017.3 |
| 20260831193847 | 94 | 284 | 0.0 | 4.0 | 0.00 | 0.00 | 0.00 | 50 | 1017.4 |
| 20260831193347 | 95 | 281 | 1.0 | 4.0 | 0.00 | 0.00 | 0.00 | 49 | 1017.4 |
| 20260831192847 | 95 | 132 | 0.0 | 7.0 | 0.00 | 0.00 | 0.00 | 49 | 1017.4 |
| 20260831192347 | 95 | 85 | 3.0 | 8.0 | 0.00 | 0.00 | 0.00 | 50 | 1017.4 |
| 20260831191846 | 95 | 59 | 6.0 | 8.0 | 0.00 | 0.00 | 0.00 | 52 | 1017.4 |
| 20260831191347 | 94 | 171 | 4.0 | 8.0 | 0.00 | 0.00 | 0.00 | 50 | 1017.4 |
| 20260831190847 | 95 | 96 | 1.0 | 8.0 | 0.00 | 0.00 | 0.00 | 51 | 1017.4 |
| 20260831190347 | 95 | 70 | 4.0 | 9.0 | 0.00 | 0.00 | 0.00 | 52 | 1017.5 |
| 20260831185847 | 94 | 23 | 2.0 | 9.0 | 0.00 | 0.00 | 0.00 | 53 | 1017.7 |
| 20260831184347 | 94 | 315 | 0.0 | 7.0 | 0.00 | 0.00 | 0.00 | 51 | 1017.9 |
| 20260831183847 | 96 | 111 | 0.0 | 8.0 | 0.00 | 0.00 | 0.00 | 49 | 1018.0 |
| 20260831183347 | 97 | 150 | 0.0 | 8.0 | 0.00 | 0.00 | 0.00 | 55 | 1018.1 |
| 20260831182847 | 94 | 202 | 6.0 | 7.0 | 0.00 | 0.00 | 0.00 | 53 | 1018.2 |
| 20260831182347 | 93 | 134 | 1.0 | 6.0 | 0.00 | 0.00 | 0.00 | 54 | 1018.2 |
| 20260831181847 | 93 | 295 | 0.0 | 4.0 | 0.00 | 0.00 | 0.00 | 54 | 1018.2 |
| 20260831181347 | 94 | 44 | 1.0 | 5.0 | 0.00 | 0.00 | 0.00 | 52 | 1018.3 |
| 20260831180347 | 94 | 38 | 2.0 | 4.0 | 0.00 | 0.00 | 0.00 | 54 | 1018.4 |
| 20260831175847 | 93 | 238 | 1.0 | 4.0 | 0.00 | 0.00 | 0.00 | 54 | 1018.6 |
| 20260831175347 | 93 | 190 | 1.0 | 4.0 | 0.00 | 0.00 | 0.00 | 56 | 1018.6 |
| 20260831174847 | 93 | 199 | 1.0 | 3.0 | 0.00 | 0.00 | 0.00 | 55 | 1018.6 |
| 20260831174347 | 92 | 238 | 1.0 | 3.0 | 0.00 | 0.00 | 0.00 | 56 | 1018.7 |
| 20260831173847 | 94 | 355 | 1.0 | 3.0 | 0.00 | 0.00 | 0.00 | 56 | 1018.7 |
| 20260831173347 | 94 | 5 | 1.0 | 4.0 | 0.00 | 0.00 | 0.00 | 54 | 1018.7 |
| 20260831172847 | 92 | 276 | 1.0 | 6.0 | 0.00 | 0.00 | 0.00 | 56 | 1018.9 |
| 20260831172346 | 93 | 265 | 2.0 | 6.0 | 0.00 | 0.00 | 0.00 | 56 | 1018.9 |
| 20260831171846 | 94 | 275 | 2.0 | 6.0 | 0.00 | 0.00 | 0.00 | 54 | 1019.0 |
| 20260831171346 | 95 | 289 | 2.0 | 5.0 | 0.00 | 0.00 | 0.00 | 56 | 1019.0 |